{"data":{"norad_id":64536,"intl_designator":"2025-135J","name":"FOSSASAT-2E21","alt_names":[],"object_type":"PAYLOAD","status":"ACTIVE","operator":null,"country":"SPN","launch_date":"2025-06-23","launch_site_code":"AFWTR","launch_vehicle":null,"mission":null,"orbit_class":"UNKNOWN","rcs_meters":null,"size_class":null,"mass_kg":null,"dimensions":null,"purposes":[],"wikipedia_slug":null,"has_3d_model":false,"image_url":null,"decayed_at":null,"tle_current":{"epoch":"2026-05-24T20:10:07.985280Z","epoch_age_seconds":82126,"freshness":"FRESH","line1":"1 64536U 25135J   26144.84037020  .00002329  00000+0  11189-3 0  9999","line2":"2 64536  97.4622 259.4190 0002615 262.4274  97.6664 15.19822589 51270","mean_motion":15.19822589,"eccentricity":0.0002615,"inclination_deg":97.4622,"raan_deg":259.419,"arg_perigee_deg":262.4274,"mean_anomaly_deg":97.6664,"bstar":0.00011189,"rev_number":5127,"period_min":94.747900868316,"perigee_km":504.57602059353,"apogee_km":508.17662106032,"semimajor_km":6884.5133208269,"source":"CELESTRAK","updated_at":"2026-05-25T13:38:04.581723Z"}}}